Warning: Javascript must be enabled to use all the features on this page!


Page Loading - Please Wait...

Click to hideNews Bulletins

Peak Streamflow for the Nation

USGS 16249000 Waimanalo Str at Waimanalo, Oahu, HI

Honolulu County, Hawaii
Hydrologic Unit Code 20060000
Latitude  21°20'59.9", Longitude 157°43'44.1" NAD83
Drainage area 2.13  square miles
Gage datum 20 feet above LMSL
Output formats
Table
Graph
Tab-separated file
peakfq (watstore) format
Reselect output format
Water
Year
Date Gage
Height
(feet)
Stream-
flow
(cfs)
1963 1963-03-06 10.00 4,5607
1966 1965-11-15 8.00 2,3307
1967 1967-02-11 6.72 1,390
1968 1967-12-18 9.54 3,810
1969 1969-01-30 5.88 1,010
1970 1970-01-26 6.51 1,280
1971 1970-11-26 10.00 4,560
1972 1972-01-23 5.71 944
1973 1973   2004,Bm
1974 1974-03-12 5.05 725
1975 1975-01-11 3.35 6002
1976 1975-11-26 4.58 7502
1977 1977-05-12 10.001 3,5002
1978 1977-12-03 4.381 5002
1979 1979-02-21 4.801 9502
1980 1980-01-08 7.131 1,2002
1981 1981-05-07 8.671 3,3402
1982 1982-01-20 5.161 9002
1983 1982-10-28 5.921 6002
1984 1983-12-25 4.921 3002
1985 1985-02-14 10.821 2,0002
1986 1985-10-20 6.311 1,1002
1987 1986-11-10 10.311 1,8002
1988 1987-12-31 9.401 4,0002
1989 1989-04-04 4.941 1,8002
1990 1990-03-01 2.581 900
1991 1991-03-19 4.371 1,6002
1992 1991-10-15 2.531  
1993 1992-12-30 3.871 1,800
1994 1993-11-03 3.501 1,5002
1995 1995-02-28 3.841 1,0002
1999 1999-01-22 3.30  
2000 2000-01-19 2.86  
2001 2000-11-03 1.71  
2002 2001-11-27 3.80  
2003 2003-02-14 4.18 2372
2004 2004-01-02 4.68 4902
2005 2004-11-06 6.15  
2006 2006-03-31 8.34 1,670
2008 2007-11-28 7.42 438
2009 2008-12-11 6.86 810
2010 2009-12-03 6.62 661
2011 2010-12-19 6.19 412
2012 2012-03-06 6.58 636
2013 2013-05-28 5.73 182
2014 2014-07-20 6.16 396
2015 2015-09-11 7.721  
2016 2015-11-23 9.79 597
2017 2017-02-11 9.25 495
2018 2018-04-13 13.13 1,240
2019 2019-06-25 8.83 397
2020 2020-03-15 9.35 513
2021 2021-03-11   3332
?
  Peak Gage-Height Qualification Codes.
?
  Peak Streamflow Qualification Codes.